EW9856 Weather Reports


time (UTC)temp
C
wind
direction
speed
KPH
gust
KPH
rain 1hr
cm
rain 24hr
cm
rain mn
cm
humidity
%
barometer
mb
20260506190027 19 204 4.8 12.9 0.00 0.00 0.00 64 1020.5
20260506184521 18 256 6.4 16.1 0.00 0.00 0.00 65 1020.6
20260506183014 18 238 4.8 11.3 0.00 0.00 0.00 66 1020.7
20260506181514 18 254 3.2 12.9 0.00 0.00 0.00 67 1020.7
20260506180018 17 263 3.2 12.9 0.00 0.00 0.00 69 1020.7
20260506174516 17 240 0.0 9.7 0.00 0.00 0.00 69 1020.7
20260506173004 16 240 3.2 8.0 0.00 0.00 0.00 71 1020.8
20260506171501 16 232 1.6 8.0 0.00 0.00 0.00 71 1020.9
20260506164557 15 255 1.6 9.7 0.00 0.05 0.00 74 1021.0
20260506163052 14 267 1.6 4.8 0.00 0.05 0.00 77 1021.1
20260506161549 13 256 0.0 4.8 0.00 0.05 0.00 77 1021.1
20260506160059 13 256 1.6 6.4 0.00 0.05 0.00 77 1021.1
20260506154546 13 244 1.6 6.4 0.00 0.05 0.00 78 1021.1
20260506153044 13 244 0.0 1.6 0.00 0.05 0.00 80 1021.1
20260506151543 13 244 0.0 0.0 0.00 0.05 0.00 80 1021.1
20260506150040 12 244 0.0 3.2 0.00 0.05 0.00 81 1021.0
20260506144552 12 244 0.0 1.6 0.00 0.05 0.00 82 1021.0
20260506143036 12 244 0.0 0.0 0.00 0.05 0.00 83 1020.9
20260506141533 12 244 0.0 0.0 0.00 0.05 0.00 84 1020.8
20260506140035 11 244 0.0 0.0 0.00 0.05 0.00 85 1020.6
20260506134530 11 244 0.0 1.6 0.00 0.05 0.00 85 1020.5
20260506133031 11 244 0.0 1.6 0.00 0.05 0.00 86 1020.3
20260506131526 11 244 0.0 0.0 0.00 0.05 0.00 86 1020.3
20260506130028 11 244 0.0 0.0 0.00 0.05 0.00 85 1020.0
20260506124523 11 244 0.0 0.0 0.00 0.05 0.00 85 1020.0
20260506123023 11 244 0.0 0.0 0.00 0.05 0.00 85 1019.9
20260506121521 11 244 0.0 0.0 0.00 0.05 0.00 85 1019.8
20260506120021 11 244 0.0 0.0 0.00 0.05 0.00 85 1019.9
20260506114532 11 244 0.0 1.6 0.00 0.10 0.00 86 1019.8
20260506113019 11 244 0.0 0.0 0.00 0.10 0.00 87 1019.6
20260506111517 11 244 0.0 0.0 0.00 0.10 0.00 87 1019.6
20260506110020 11 244 0.0 0.0 0.00 0.10 0.00 87 1019.4
20260506104515 11 244 0.0 0.0 0.00 0.15 0.00 87 1019.4
20260506103014 11 244 0.0 0.0 0.00 0.15 0.00 86 1019.4
20260506101516 11 244 0.0 1.6 0.00 0.15 0.00 86 1019.4
20260506100022 11 244 0.0 0.0 0.00 0.15 0.00 86 1019.3
20260506094512 11 244 0.0 1.6 0.00 0.18 0.00 86 1019.2
20260506093010 11 244 0.0 0.0 0.00 0.18 0.00 85 1019.2
20260506091509 11 244 0.0 0.0 0.00 0.18 0.00 86 1019.2
20260506090008 11 244 0.0 0.0 0.00 0.18 0.00 85 1019.3
20260506084507 11 244 0.0 0.0 0.00 0.25 0.00 85 1019.3
20260506083006 11 244 0.0 0.0 0.00 0.25 0.00 85 1019.4
20260506081506 11 244 0.0 0.0 0.00 0.25 0.00 84 1019.5
20260506073100 11 244 0.0 1.6 0.00 0.28 0.00 83 1019.1
20260506071600 12 244 0.0 4.8 0.00 0.28 0.00 82 1019.0
20260506061552 12 311 1.6 6.4 0.00 0.28 0.28 81 1018.6
20260506044547 12 247 0.0 8.0 0.00 0.28 0.28 79 1018.1
20260506043043 12 229 1.6 11.3 0.00 0.28 0.28 79 1017.8
20260506041542 13 273 6.4 11.3 0.00 0.28 0.28 78 1017.7
20260506040041 13 240 0.0 8.0 0.00 0.28 0.28 79 1017.6
20260506034541 13 309 3.2 9.7 0.00 0.28 0.28 78 1017.4
20260506033038 13 246 3.2 11.3 0.00 0.28 0.28 78 1017.2
20260506031537 13 259 3.2 14.5 0.00 0.28 0.28 77 1017.0
20260506030054 13 265 6.4 16.1 0.00 0.28 0.28 76 1016.7
20260506024542 13 249 4.8 14.5 0.00 0.28 0.28 75 1016.7
20260506023033 13 267 6.4 16.1 0.00 0.28 0.28 75 1016.6
20260506021531 14 278 3.2 14.5 0.00 0.28 0.28 74 1016.4
20260506020032 14 240 4.8 12.9 0.00 0.28 0.28 75 1016.3
20260506014530 14 205 6.4 11.3 0.00 0.28 0.28 74 1016.2
20260506013130 14 241 8.0 12.9 0.00 0.28 0.28 73 1016.2
20260506011536 15 265 4.8 16.1 0.00 0.28 0.28 73 1016.4
20260506010027 15 242 8.0 14.5 0.00 0.28 0.28 72 1016.2
20260506004543 15 225 4.8 16.1 0.00 0.28 0.28 72 1016.1
20260506003033 15 262 4.8 16.1 0.00 0.28 0.28 72 1016.0
20260506001531 15 246 4.8 14.5 0.00 0.28 0.28 72 1015.9
20260506000026 15 229 6.4 16.1 0.00 0.28 0.28 72 1015.8
20260505234522 15 253 6.4 14.5 0.00 0.28 0.28 72 1015.8
20260505233017 15 261 6.4 14.5 0.00 0.28 0.28 72 1016.0
20260505231520 15 257 4.8 11.3 0.00 0.28 0.28 72 1016.0
20260505230014 16 241 3.2 11.3 0.00 0.28 0.28 72 1016.1
20260505224511 16 244 6.4 14.5 0.00 0.28 0.28 71 1016.0
20260505223008 15 234 3.2 17.7 0.00 0.28 0.28 73 1016.0
20260505221506 15 262 3.2 12.9 0.00 0.28 0.28 74 1016.1
20260505220005 15 279 1.6 9.7 0.00 0.28 0.28 76 1016.2
20260505214503 15 252 4.8 14.5 0.00 0.28 0.28 76 1016.3
20260505213002 14 229 4.8 9.7 0.00 0.28 0.28 76 1016.3
20260505211602 14 251 1.6 9.7 0.00 0.28 0.28 77 1016.3
20260505210107 14 261 3.2 11.3 0.00 0.28 0.28 78 1016.3
20260505204557 14 239 3.2 11.3 0.00 0.28 0.28 78 1016.3
20260505203057 13 259 0.0 14.5 0.00 0.28 0.28 79 1016.4
20260505201555 13 257 6.4 11.3 0.00 0.28 0.28 79 1016.4
20260505200054 13 229 4.8 14.5 0.00 0.28 0.28 79 1016.5
20260505194558 13 252 6.4 14.5 0.00 0.28 0.28 78 1016.5
20260505193105 13 259 4.8 14.5 0.00 0.28 0.28 80 1016.4
20260505191553 13 219 6.4 12.9 0.00 0.28 0.28 82 1016.5